owner,sensor,date,latitude,longitude,air_pressure(mBar),qcFlag 
TABS,ioos:station:wmo:42044:1,2003-04-01T00:09:00Z,26.1914,-97.0507,1029.94,11111222 
TABS,ioos:station:wmo:42044:1,2003-04-01T00:39:00Z,26.1914,-97.0507,1030.07,11111222 
TABS,ioos:station:wmo:42044:1,2003-04-01T01:09:00Z,26.1914,-97.0507,1030.13,11111222 
TABS,ioos:station:wmo:42044:1,2003-04-01T01:39:00Z,26.1914,-97.0507,1030.13,11111222 
TABS,ioos:station:wmo:42044:1,2003-04-01T02:09:00Z,26.1914,-97.0507,1030.39,11111222 
TABS,ioos:station:wmo:42044:1,2003-04-01T02:39:00Z,26.1914,-97.0507,1030.77,11111222 
TABS,ioos:station:wmo:42044:1,2003-04-01T03:09:00Z,26.1914,-97.0507,1030.96,11111222 
TABS,ioos:station:wmo:42044:1,2003-04-01T03:39:00Z,26.1914,-97.0507,1030.96,11111222 
TABS,ioos:station:wmo:42044:1,2003-04-01T04:09:00Z,26.1914,-97.0507,1030.9,11111222 
TABS,ioos:station:wmo:42044:1,2003-04-01T04:39:00Z,26.1914,-97.0507,1030.71,11111222 
TABS,ioos:station:wmo:42044:1,2003-04-01T05:09:00Z,26.1914,-97.0507,1030.39,11111222 
TABS,ioos:station:wmo:42044:1,2003-04-01T05:39:00Z,26.1914,-97.0507,1030.07,11111222 
TABS,ioos:station:wmo:42044:1,2003-04-01T06:09:00Z,26.1914,-97.0507,1029.88,11111222 
TABS,ioos:station:wmo:42044:1,2003-04-01T06:39:00Z,26.1914,-97.0507,1029.56,11111222 
TABS,ioos:station:wmo:42044:1,2003-04-01T07:09:00Z,26.1914,-97.0507,1029.25,11111222 
TABS,ioos:station:wmo:42044:1,2003-04-01T07:39:00Z,26.1914,-97.0507,1028.93,11111222 
TABS,ioos:station:wmo:42044:1,2003-04-01T08:09:00Z,26.1914,-97.0507,1028.48,11111222 
TABS,ioos:station:wmo:42044:1,2003-04-01T08:39:00Z,26.1914,-97.0507,1028.17,11111222 
TABS,ioos:station:wmo:42044:1,2003-04-01T09:09:00Z,26.1914,-97.0507,1027.91,11111222 
TABS,ioos:station:wmo:42044:1,2003-04-01T09:39:00Z,26.1914,-97.0507,1027.59,11111222 
TABS,ioos:station:wmo:42044:1,2003-04-01T10:09:00Z,26.1914,-97.0507,1027.47,11111222 
TABS,ioos:station:wmo:42044:1,2003-04-01T10:39:00Z,26.1914,-97.0507,1027.47,11111222 
TABS,ioos:station:wmo:42044:1,2003-04-01T11:09:00Z,26.1914,-97.0507,1027.4,11111222 
TABS,ioos:station:wmo:42044:1,2003-04-01T11:39:00Z,26.1914,-97.0507,1027.53,11111222 
TABS,ioos:station:wmo:42044:1,2003-04-01T12:09:00Z,26.1914,-97.0507,1027.59,11111222 
TABS,ioos:station:wmo:42044:1,2003-04-01T12:39:00Z,26.1914,-97.0507,1027.59,11111222 
TABS,ioos:station:wmo:42044:1,2003-04-01T13:09:00Z,26.1914,-97.0507,1027.66,11111222 
TABS,ioos:station:wmo:42044:1,2003-04-01T13:39:00Z,26.1914,-97.0507,1027.91,11111222 
TABS,ioos:station:wmo:42044:1,2003-04-01T14:09:00Z,26.1914,-97.0507,1028.17,11111222 
TABS,ioos:station:wmo:42044:1,2003-04-01T14:39:00Z,26.1914,-97.0507,1028.61,11111222 
TABS,ioos:station:wmo:42044:1,2003-04-01T15:09:00Z,26.1914,-97.0507,1028.8,11111222 
TABS,ioos:station:wmo:42044:1,2003-04-01T16:09:00Z,26.1914,-97.0507,1028.8,11111222 
TABS,ioos:station:wmo:42044:1,2003-04-01T16:39:00Z,26.1914,-97.0507,1028.67,11111222 
TABS,ioos:station:wmo:42044:1,2003-04-01T17:09:00Z,26.1914,-97.0507,1028.36,11111222 
TABS,ioos:station:wmo:42044:1,2003-04-01T17:39:00Z,26.1914,-97.0507,1028.04,11111222 
TABS,ioos:station:wmo:42044:1,2003-04-01T18:09:00Z,26.1914,-97.0507,1027.66,11111222 
TABS,ioos:station:wmo:42044:1,2003-04-01T19:09:00Z,26.1914,-97.0507,1026.71,11111222 
TABS,ioos:station:wmo:42044:1,2003-04-01T19:39:00Z,26.1914,-97.0507,1026.2,11111222 
TABS,ioos:station:wmo:42044:1,2003-04-01T20:09:00Z,26.1914,-97.0507,1025.75,11111222 
TABS,ioos:station:wmo:42044:1,2003-04-01T20:39:00Z,26.1914,-97.0507,1025.5,11111222 
TABS,ioos:station:wmo:42044:1,2003-04-01T21:09:00Z,26.1914,-97.0507,1025.12,11111222 
TABS,ioos:station:wmo:42044:1,2003-04-01T21:39:00Z,26.1914,-97.0507,1024.8,11111222 
TABS,ioos:station:wmo:42044:1,2003-04-01T22:09:00Z,26.1914,-97.0507,1024.55,11111222 
TABS,ioos:station:wmo:42044:1,2003-04-01T22:39:00Z,26.1914,-97.0507,1024.42,11111222 
TABS,ioos:station:wmo:42044:1,2003-04-01T23:09:00Z,26.1914,-97.0507,1024.1,11111222 
TABS,ioos:station:wmo:42044:1,2003-04-01T23:39:00Z,26.1914,-97.0507,1023.98,11111222 
TABS,ioos:station:wmo:42044:1,2003-04-02T00:09:00Z,26.1914,-97.0507,1023.98,11111222 
TABS,ioos:station:wmo:42044:1,2003-04-02T00:39:00Z,26.1914,-97.0507,1024.1,11111222 
TABS,ioos:station:wmo:42044:1,2003-04-02T01:09:00Z,26.1914,-97.0507,1023.98,11111222 
TABS,ioos:station:wmo:42044:1,2003-04-02T01:39:00Z,26.1914,-97.0507,1023.98,11111222 
TABS,ioos:station:wmo:42044:1,2003-04-02T02:09:00Z,26.1914,-97.0507,1024.1,11111222 
TABS,ioos:station:wmo:42044:1,2003-04-02T02:39:00Z,26.1914,-97.0507,1024.36,11111222 
TABS,ioos:station:wmo:42044:1,2003-04-02T03:09:00Z,26.1914,-97.0507,1024.67,11111222 
TABS,ioos:station:wmo:42044:1,2003-04-02T03:39:00Z,26.1914,-97.0507,1024.8,11111222 
TABS,ioos:station:wmo:42044:1,2003-04-02T04:09:00Z,26.1914,-97.0507,1024.87,11111222 
TABS,ioos:station:wmo:42044:1,2003-04-02T04:39:00Z,26.1914,-97.0507,1024.61,11111222 
TABS,ioos:station:wmo:42044:1,2003-04-02T05:09:00Z,26.1914,-97.0507,1024.48,11111222 
TABS,ioos:station:wmo:42044:1,2003-04-02T05:39:00Z,26.1914,-97.0507,1024.48,11111222 
TABS,ioos:station:wmo:42044:1,2003-04-02T06:09:00Z,26.1914,-97.0507,1024.29,11111222 
TABS,ioos:station:wmo:42044:1,2003-04-02T06:39:00Z,26.1914,-97.0507,1024.04,11111222 
TABS,ioos:station:wmo:42044:1,2003-04-02T07:09:00Z,26.1914,-97.0507,1023.6,11111222 
TABS,ioos:station:wmo:42044:1,2003-04-02T07:39:00Z,26.1914,-97.0507,1023.15,11111222 
TABS,ioos:station:wmo:42044:1,2003-04-02T08:09:00Z,26.1914,-97.0507,1022.64,11111222 
TABS,ioos:station:wmo:42044:1,2003-04-02T08:39:00Z,26.1914,-97.0507,1022.39,11111222 
TABS,ioos:station:wmo:42044:1,2003-04-02T09:09:00Z,26.1914,-97.0507,1022.14,11111222 
TABS,ioos:station:wmo:42044:1,2003-04-02T09:39:00Z,26.1914,-97.0507,1021.75,11111222 
TABS,ioos:station:wmo:42044:1,2003-04-02T10:09:00Z,26.1914,-97.0507,1021.56,11111222 
TABS,ioos:station:wmo:42044:1,2003-04-02T10:39:00Z,26.1914,-97.0507,1021.69,11111222 
TABS,ioos:station:wmo:42044:1,2003-04-02T11:09:00Z,26.1914,-97.0507,1021.95,11111222 
TABS,ioos:station:wmo:42044:1,2003-04-02T11:39:00Z,26.1914,-97.0507,1021.88,11111222 
TABS,ioos:station:wmo:42044:1,2003-04-02T12:09:00Z,26.1914,-97.0507,1021.88,11111222 
TABS,ioos:station:wmo:42044:1,2003-04-02T12:39:00Z,26.1914,-97.0507,1022.14,11111222 
TABS,ioos:station:wmo:42044:1,2003-04-02T13:09:00Z,26.1914,-97.0507,1022.14,11111222 
TABS,ioos:station:wmo:42044:1,2003-04-02T13:39:00Z,26.1914,-97.0507,1022.58,11111222 
TABS,ioos:station:wmo:42044:1,2003-04-02T14:09:00Z,26.1914,-97.0507,1022.77,11111222 
TABS,ioos:station:wmo:42044:1,2003-04-02T14:39:00Z,26.1914,-97.0507,1022.83,11111222 
TABS,ioos:station:wmo:42044:1,2003-04-02T15:09:00Z,26.1914,-97.0507,1023.28,11111222 
TABS,ioos:station:wmo:42044:1,2003-04-02T16:09:00Z,26.1914,-97.0507,1023.09,11111222 
TABS,ioos:station:wmo:42044:1,2003-04-02T16:39:00Z,26.1914,-97.0507,1023.21,11111222 
TABS,ioos:station:wmo:42044:1,2003-04-02T17:09:00Z,26.1914,-97.0507,1023.28,11111222 
TABS,ioos:station:wmo:42044:1,2003-04-02T17:39:00Z,26.1914,-97.0507,1022.83,11111222 
TABS,ioos:station:wmo:42044:1,2003-04-02T18:09:00Z,26.1914,-97.0507,1022.52,11111222 
TABS,ioos:station:wmo:42044:1,2003-04-02T19:09:00Z,26.1914,-97.0507,1021.63,11111222 
TABS,ioos:station:wmo:42044:1,2003-04-02T19:39:00Z,26.1914,-97.0507,1021.44,11111222 
TABS,ioos:station:wmo:42044:1,2003-04-02T20:09:00Z,26.1914,-97.0507,1020.87,11111222 
TABS,ioos:station:wmo:42044:1,2003-04-02T20:39:00Z,26.1914,-97.0507,1020.8,11111222 
TABS,ioos:station:wmo:42044:1,2003-04-02T21:09:00Z,26.1914,-97.0507,1020.55,11111222 
TABS,ioos:station:wmo:42044:1,2003-04-02T21:39:00Z,26.1914,-97.0507,1020.1,11111222 
TABS,ioos:station:wmo:42044:1,2003-04-02T22:09:00Z,26.1914,-97.0507,1020.04,11111222 
TABS,ioos:station:wmo:42044:1,2003-04-02T22:39:00Z,26.1914,-97.0507,1020.23,11111222 
TABS,ioos:station:wmo:42044:1,2003-04-02T23:09:00Z,26.1914,-97.0507,1020.17,11111222 
TABS,ioos:station:wmo:42044:1,2003-04-02T23:39:00Z,26.1914,-97.0507,1020.29,11111222 
TABS,ioos:station:wmo:42044:1,2003-04-03T00:09:00Z,26.1914,-97.0507,1020.74,11111222 
TABS,ioos:station:wmo:42044:1,2003-04-03T00:39:00Z,26.1914,-97.0507,1020.55,11111222 
TABS,ioos:station:wmo:42044:1,2003-04-03T01:09:00Z,26.1914,-97.0507,1020.36,11111222 
TABS,ioos:station:wmo:42044:1,2003-04-03T01:39:00Z,26.1914,-97.0507,1020.29,11111222 
TABS,ioos:station:wmo:42044:1,2003-04-03T02:09:00Z,26.1914,-97.0507,1020.36,11111222 
TABS,ioos:station:wmo:42044:1,2003-04-03T02:39:00Z,26.1914,-97.0507,1020.36,11111222 
TABS,ioos:station:wmo:42044:1,2003-04-03T03:09:00Z,26.1914,-97.0507,1020.42,11111222 
TABS,ioos:station:wmo:42044:1,2003-04-03T03:39:00Z,26.1914,-97.0507,1020.74,11111222 
TABS,ioos:station:wmo:42044:1,2003-04-03T04:09:00Z,26.1914,-97.0507,1020.74,11111222 
TABS,ioos:station:wmo:42044:1,2003-04-03T04:39:00Z,26.1914,-97.0507,1020.74,11111222 
TABS,ioos:station:wmo:42044:1,2003-04-03T05:09:00Z,26.1914,-97.0507,1020.29,11111222 
TABS,ioos:station:wmo:42044:1,2003-04-03T05:39:00Z,26.1914,-97.0507,1019.72,11111222 
TABS,ioos:station:wmo:42044:1,2003-04-03T06:09:00Z,26.1914,-97.0507,1019.53,11111222 
TABS,ioos:station:wmo:42044:1,2003-04-03T06:39:00Z,26.1914,-97.0507,1019.41,11111222 
TABS,ioos:station:wmo:42044:1,2003-04-03T07:09:00Z,26.1914,-97.0507,1019.22,11111222 
TABS,ioos:station:wmo:42044:1,2003-04-03T07:39:00Z,26.1914,-97.0507,1018.83,11111222 
TABS,ioos:station:wmo:42044:1,2003-04-03T08:09:00Z,26.1914,-97.0507,1018.58,11111222 
TABS,ioos:station:wmo:42044:1,2003-04-03T08:39:00Z,26.1914,-97.0507,1018.07,11111222 
TABS,ioos:station:wmo:42044:1,2003-04-03T09:09:00Z,26.1914,-97.0507,1017.95,11111222 
TABS,ioos:station:wmo:42044:1,2003-04-03T09:39:00Z,26.1914,-97.0507,1017.57,11111222 
TABS,ioos:station:wmo:42044:1,2003-04-03T10:09:00Z,26.1914,-97.0507,1017.37,11111222 
TABS,ioos:station:wmo:42044:1,2003-04-03T10:39:00Z,26.1914,-97.0507,1017.37,11111222 
TABS,ioos:station:wmo:42044:1,2003-04-03T11:09:00Z,26.1914,-97.0507,1017.37,11111222 
TABS,ioos:station:wmo:42044:1,2003-04-03T11:39:00Z,26.1914,-97.0507,1017.5,11111222 
TABS,ioos:station:wmo:42044:1,2003-04-03T12:09:00Z,26.1914,-97.0507,1017.88,11111222 
TABS,ioos:station:wmo:42044:1,2003-04-03T12:39:00Z,26.1914,-97.0507,1018.07,11111222 
TABS,ioos:station:wmo:42044:1,2003-04-03T13:09:00Z,26.1914,-97.0507,1018.39,11111222 
TABS,ioos:station:wmo:42044:1,2003-04-03T13:39:00Z,26.1914,-97.0507,1018.52,11111222 
TABS,ioos:station:wmo:42044:1,2003-04-03T14:09:00Z,26.1914,-97.0507,1018.83,11111222 
TABS,ioos:station:wmo:42044:1,2003-04-03T14:39:00Z,26.1914,-97.0507,1019.22,11111222 
TABS,ioos:station:wmo:42044:1,2003-04-03T15:09:00Z,26.1914,-97.0507,1019.66,11111222 
TABS,ioos:station:wmo:42044:1,2003-04-03T16:09:00Z,26.1914,-97.0507,1018.9,11111222 
TABS,ioos:station:wmo:42044:1,2003-04-03T16:39:00Z,26.1914,-97.0507,1019.09,11111222 
TABS,ioos:station:wmo:42044:1,2003-04-03T17:09:00Z,26.1914,-97.0507,1018.9,11111222 
TABS,ioos:station:wmo:42044:1,2003-04-03T17:39:00Z,26.1914,-97.0507,1018.64,11111222 
TABS,ioos:station:wmo:42044:1,2003-04-03T18:09:00Z,26.1914,-97.0507,1017.82,11111222 
TABS,ioos:station:wmo:42044:1,2003-04-03T19:09:00Z,26.1914,-97.0507,1016.68,11111222 
TABS,ioos:station:wmo:42044:1,2003-04-03T19:39:00Z,26.1914,-97.0507,1016.11,11111222 
TABS,ioos:station:wmo:42044:1,2003-04-03T20:09:00Z,26.1914,-97.0507,1015.72,11111222 
TABS,ioos:station:wmo:42044:1,2003-04-03T20:39:00Z,26.1914,-97.0507,1015.41,11111222 
TABS,ioos:station:wmo:42044:1,2003-04-03T21:09:00Z,26.1914,-97.0507,1014.9,11111222 
TABS,ioos:station:wmo:42044:1,2003-04-03T21:39:00Z,26.1914,-97.0507,1014.52,11111222 
TABS,ioos:station:wmo:42044:1,2003-04-03T22:09:00Z,26.1914,-97.0507,1014.46,11111222 
TABS,ioos:station:wmo:42044:1,2003-04-03T22:39:00Z,26.1914,-97.0507,1014.07,11111222 
TABS,ioos:station:wmo:42044:1,2003-04-03T23:09:00Z,26.1914,-97.0507,1014.07,11111222 
TABS,ioos:station:wmo:42044:1,2003-04-03T23:39:00Z,26.1914,-97.0507,1013.95,11111222 
TABS,ioos:station:wmo:42044:1,2003-04-04T00:09:00Z,26.1914,-97.0507,1014.2,11111222 
TABS,ioos:station:wmo:42044:1,2003-04-04T00:39:00Z,26.1914,-97.0507,1014.33,11111222 
TABS,ioos:station:wmo:42044:1,2003-04-04T01:09:00Z,26.1914,-97.0507,1014.39,11111222 
TABS,ioos:station:wmo:42044:1,2003-04-04T01:39:00Z,26.1914,-97.0507,1014.46,11111222 
TABS,ioos:station:wmo:42044:1,2003-04-04T02:09:00Z,26.1914,-97.0507,1014.52,11111222 
TABS,ioos:station:wmo:42044:1,2003-04-04T02:39:00Z,26.1914,-97.0507,1014.96,11111222 
TABS,ioos:station:wmo:42044:1,2003-04-04T03:09:00Z,26.1914,-97.0507,1014.9,11111222 
TABS,ioos:station:wmo:42044:1,2003-04-04T03:39:00Z,26.1914,-97.0507,1014.9,11111222 
TABS,ioos:station:wmo:42044:1,2003-04-04T04:09:00Z,26.1914,-97.0507,1014.84,11111222 
TABS,ioos:station:wmo:42044:1,2003-04-04T04:39:00Z,26.1914,-97.0507,1014.39,11111222 
TABS,ioos:station:wmo:42044:1,2003-04-04T05:09:00Z,26.1914,-97.0507,1014.33,11111222 
TABS,ioos:station:wmo:42044:1,2003-04-04T05:39:00Z,26.1914,-97.0507,1014.33,11111222 
TABS,ioos:station:wmo:42044:1,2003-04-04T06:09:00Z,26.1914,-97.0507,1014.33,11111222 
TABS,ioos:station:wmo:42044:1,2003-04-04T06:39:00Z,26.1914,-97.0507,1014.14,11111222 
TABS,ioos:station:wmo:42044:1,2003-04-04T07:09:00Z,26.1914,-97.0507,1014.07,11111222 
TABS,ioos:station:wmo:42044:1,2003-04-04T07:39:00Z,26.1914,-97.0507,1013.57,11111222 
TABS,ioos:station:wmo:42044:1,2003-04-04T08:09:00Z,26.1914,-97.0507,1012.93,11111222 
TABS,ioos:station:wmo:42044:1,2003-04-04T08:39:00Z,26.1914,-97.0507,1012.49,11111222 
TABS,ioos:station:wmo:42044:1,2003-04-04T09:09:00Z,26.1914,-97.0507,1012.23,11111222 
TABS,ioos:station:wmo:42044:1,2003-04-04T09:39:00Z,26.1914,-97.0507,1012.17,11111222 
TABS,ioos:station:wmo:42044:1,2003-04-04T10:09:00Z,26.1914,-97.0507,1011.92,11111222 
TABS,ioos:station:wmo:42044:1,2003-04-04T10:39:00Z,26.1914,-97.0507,1012.04,11111222 
TABS,ioos:station:wmo:42044:1,2003-04-04T11:09:00Z,26.1914,-97.0507,1011.54,11111222 
TABS,ioos:station:wmo:42044:1,2003-04-04T11:39:00Z,26.1914,-97.0507,1012.04,11111222 
TABS,ioos:station:wmo:42044:1,2003-04-04T12:09:00Z,26.1914,-97.0507,1012.17,11111222 
TABS,ioos:station:wmo:42044:1,2003-04-04T12:39:00Z,26.1914,-97.0507,1012.3,11111222 
TABS,ioos:station:wmo:42044:1,2003-04-04T13:09:00Z,26.1914,-97.0507,1012.36,11111222 
TABS,ioos:station:wmo:42044:1,2003-04-04T13:39:00Z,26.1914,-97.0507,1012.87,11111222 
TABS,ioos:station:wmo:42044:1,2003-04-04T14:09:00Z,26.1914,-97.0507,1012.93,11111222 
TABS,ioos:station:wmo:42044:1,2003-04-04T14:39:00Z,26.1914,-97.0507,1013.31,11111222 
TABS,ioos:station:wmo:42044:1,2003-04-04T15:09:00Z,26.1914,-97.0507,1013.57,11111222 
TABS,ioos:station:wmo:42044:1,2003-04-04T16:09:00Z,26.1914,-97.0507,1014.14,11111222 
TABS,ioos:station:wmo:42044:1,2003-04-04T16:39:00Z,26.1914,-97.0507,1013.76,11111222 
TABS,ioos:station:wmo:42044:1,2003-04-04T17:09:00Z,26.1914,-97.0507,1013.5,11111222 
TABS,ioos:station:wmo:42044:1,2003-04-04T17:39:00Z,26.1914,-97.0507,1013.57,11111222 
TABS,ioos:station:wmo:42044:1,2003-04-04T18:09:00Z,26.1914,-97.0507,1013.38,11111222 
TABS,ioos:station:wmo:42044:1,2003-04-04T19:09:00Z,26.1914,-97.0507,1012.42,11111222 
TABS,ioos:station:wmo:42044:1,2003-04-04T19:39:00Z,26.1914,-97.0507,1011.79,11111222 
TABS,ioos:station:wmo:42044:1,2003-04-04T20:09:00Z,26.1914,-97.0507,1011.66,11111222 
TABS,ioos:station:wmo:42044:1,2003-04-04T20:39:00Z,26.1914,-97.0507,1011.47,11111222 
TABS,ioos:station:wmo:42044:1,2003-04-04T21:09:00Z,26.1914,-97.0507,1011.03,11111222 
TABS,ioos:station:wmo:42044:1,2003-04-04T21:39:00Z,26.1914,-97.0507,1010.65,11111222 
TABS,ioos:station:wmo:42044:1,2003-04-04T22:09:00Z,26.1914,-97.0507,1010.84,11111222 
TABS,ioos:station:wmo:42044:1,2003-04-04T22:39:00Z,26.1914,-97.0507,1010.77,11111222 
TABS,ioos:station:wmo:42044:1,2003-04-04T23:09:00Z,26.1914,-97.0507,1010.58,11111222 
TABS,ioos:station:wmo:42044:1,2003-04-04T23:39:00Z,26.1914,-97.0507,1010.58,11111222 
TABS,ioos:station:wmo:42044:1,2003-04-05T00:09:00Z,26.1914,-97.0507,1010.58,11111222 
TABS,ioos:station:wmo:42044:1,2003-04-05T00:39:00Z,26.1914,-97.0507,1010.9,11111222 
TABS,ioos:station:wmo:42044:1,2003-04-05T01:09:00Z,26.1914,-97.0507,1011.03,11111222 
TABS,ioos:station:wmo:42044:1,2003-04-05T01:39:00Z,26.1914,-97.0507,1011.47,11111222 
TABS,ioos:station:wmo:42044:1,2003-04-05T02:09:00Z,26.1914,-97.0507,1011.92,11111222 
TABS,ioos:station:wmo:42044:1,2003-04-05T02:39:00Z,26.1914,-97.0507,1012.17,11111222 
TABS,ioos:station:wmo:42044:1,2003-04-05T03:09:00Z,26.1914,-97.0507,1012.61,11111222 
TABS,ioos:station:wmo:42044:1,2003-04-05T03:39:00Z,26.1914,-97.0507,1012.8,11111222 
TABS,ioos:station:wmo:42044:1,2003-04-05T04:09:00Z,26.1914,-97.0507,1013.19,11111222 
TABS,ioos:station:wmo:42044:1,2003-04-05T04:39:00Z,26.1914,-97.0507,1013.5,11111222 
TABS,ioos:station:wmo:42044:1,2003-04-05T05:09:00Z,26.1914,-97.0507,1013.57,11111222 
TABS,ioos:station:wmo:42044:1,2003-04-05T05:39:00Z,26.1914,-97.0507,1013.5,11111222 
TABS,ioos:station:wmo:42044:1,2003-04-05T06:09:00Z,26.1914,-97.0507,1013.44,11111222 
TABS,ioos:station:wmo:42044:1,2003-04-05T06:39:00Z,26.1914,-97.0507,1013.44,11111222 
TABS,ioos:station:wmo:42044:1,2003-04-05T07:09:00Z,26.1914,-97.0507,1013.19,11111222 
TABS,ioos:station:wmo:42044:1,2003-04-05T07:39:00Z,26.1914,-97.0507,1012.8,11111222 
TABS,ioos:station:wmo:42044:1,2003-04-05T08:09:00Z,26.1914,-97.0507,1012.74,11111222 
TABS,ioos:station:wmo:42044:1,2003-04-05T08:39:00Z,26.1914,-97.0507,1012.42,11111222 
TABS,ioos:station:wmo:42044:1,2003-04-05T09:09:00Z,26.1914,-97.0507,1011.98,11111222 
TABS,ioos:station:wmo:42044:1,2003-04-05T09:39:00Z,26.1914,-97.0507,1011.92,11111222 
TABS,ioos:station:wmo:42044:1,2003-04-05T10:09:00Z,26.1914,-97.0507,1012.11,11111222 
TABS,ioos:station:wmo:42044:1,2003-04-05T10:39:00Z,26.1914,-97.0507,1012.11,11111222 
TABS,ioos:station:wmo:42044:1,2003-04-05T11:09:00Z,26.1914,-97.0507,1012.3,11111222 
TABS,ioos:station:wmo:42044:1,2003-04-05T11:39:00Z,26.1914,-97.0507,1012.74,11111222 
TABS,ioos:station:wmo:42044:1,2003-04-05T12:09:00Z,26.1914,-97.0507,1013.12,11111222 
TABS,ioos:station:wmo:42044:1,2003-04-05T12:39:00Z,26.1914,-97.0507,1013.57,11111222 
TABS,ioos:station:wmo:42044:1,2003-04-05T13:09:00Z,26.1914,-97.0507,1013.95,11111222 
TABS,ioos:station:wmo:42044:1,2003-04-05T13:39:00Z,26.1914,-97.0507,1013.95,11111222 
TABS,ioos:station:wmo:42044:1,2003-04-05T14:09:00Z,26.1914,-97.0507,1014.01,11111222 
TABS,ioos:station:wmo:42044:1,2003-04-05T14:39:00Z,26.1914,-97.0507,1014.07,11111222 
TABS,ioos:station:wmo:42044:1,2003-04-05T15:09:00Z,26.1914,-97.0507,1014.33,11111222 
TABS,ioos:station:wmo:42044:1,2003-04-05T15:39:00Z,26.1914,-97.0507,1014.33,11111222 
TABS,ioos:station:wmo:42044:1,2003-04-05T16:09:00Z,26.1914,-97.0507,1014.39,11111222 
TABS,ioos:station:wmo:42044:1,2003-04-05T16:39:00Z,26.1914,-97.0507,1014.39,11111222 
TABS,ioos:station:wmo:42044:1,2003-04-05T17:09:00Z,26.1914,-97.0507,1014.46,11111222 
TABS,ioos:station:wmo:42044:1,2003-04-05T17:39:00Z,26.1914,-97.0507,1014.33,11111222 
TABS,ioos:station:wmo:42044:1,2003-04-05T18:09:00Z,26.1914,-97.0507,1014.07,11111222 
TABS,ioos:station:wmo:42044:1,2003-04-05T18:39:00Z,26.1914,-97.0507,1013.69,11111222 
TABS,ioos:station:wmo:42044:1,2003-04-05T19:09:00Z,26.1914,-97.0507,1013.31,11111222 
TABS,ioos:station:wmo:42044:1,2003-04-05T19:39:00Z,26.1914,-97.0507,1012.8,11111222 
TABS,ioos:station:wmo:42044:1,2003-04-05T20:09:00Z,26.1914,-97.0507,1012.42,11111222 
TABS,ioos:station:wmo:42044:1,2003-04-05T20:39:00Z,26.1914,-97.0507,1012.11,11111222 
TABS,ioos:station:wmo:42044:1,2003-04-05T21:09:00Z,26.1914,-97.0507,1011.85,11111222 
TABS,ioos:station:wmo:42044:1,2003-04-05T21:39:00Z,26.1914,-97.0507,1011.6,11111222 
TABS,ioos:station:wmo:42044:1,2003-04-05T22:09:00Z,26.1914,-97.0507,1011.15,11111222 
TABS,ioos:station:wmo:42044:1,2003-04-05T22:39:00Z,26.1914,-97.0507,1011.22,11111222 
TABS,ioos:station:wmo:42044:1,2003-04-05T23:09:00Z,26.1914,-97.0507,1011.09,11111222 
TABS,ioos:station:wmo:42044:1,2003-04-05T23:39:00Z,26.1914,-97.0507,1010.96,11111222 
TABS,ioos:station:wmo:42044:1,2003-04-06T00:09:00Z,26.1914,-97.0507,1010.65,11111222 
TABS,ioos:station:wmo:42044:1,2003-04-06T00:39:00Z,26.1914,-97.0507,1010.65,11111222 
TABS,ioos:station:wmo:42044:1,2003-04-06T01:09:00Z,26.1914,-97.0507,1010.65,11111222 
TABS,ioos:station:wmo:42044:1,2003-04-06T01:39:00Z,26.1914,-97.0507,1011.09,11111222 
TABS,ioos:station:wmo:42044:1,2003-04-06T02:09:00Z,26.1914,-97.0507,1011.09,11111222 
TABS,ioos:station:wmo:42044:1,2003-04-06T02:39:00Z,26.1914,-97.0507,1011.47,11111222 
TABS,ioos:station:wmo:42044:1,2003-04-06T03:09:00Z,26.1914,-97.0507,1011.85,11111222 
TABS,ioos:station:wmo:42044:1,2003-04-06T03:39:00Z,26.1914,-97.0507,1012.11,11111222 
TABS,ioos:station:wmo:42044:1,2003-04-06T04:09:00Z,26.1914,-97.0507,1012.23,11111222 
TABS,ioos:station:wmo:42044:1,2003-04-06T04:39:00Z,26.1914,-97.0507,1012.3,11111222 
TABS,ioos:station:wmo:42044:1,2003-04-06T05:09:00Z,26.1914,-97.0507,1012.11,11111222 
TABS,ioos:station:wmo:42044:1,2003-04-06T05:39:00Z,26.1914,-97.0507,1011.85,11111222 
TABS,ioos:station:wmo:42044:1,2003-04-06T06:09:00Z,26.1914,-97.0507,1011.6,11111222 
TABS,ioos:station:wmo:42044:1,2003-04-06T06:39:00Z,26.1914,-97.0507,1011.34,11111222 
TABS,ioos:station:wmo:42044:1,2003-04-06T07:09:00Z,26.1914,-97.0507,1010.9,11111222 
TABS,ioos:station:wmo:42044:1,2003-04-06T07:39:00Z,26.1914,-97.0507,1010.58,11111222 
TABS,ioos:station:wmo:42044:1,2003-04-06T08:09:00Z,26.1914,-97.0507,1009.95,11111222 
TABS,ioos:station:wmo:42044:1,2003-04-06T08:39:00Z,26.1914,-97.0507,1009.5,11111222 
TABS,ioos:station:wmo:42044:1,2003-04-06T09:09:00Z,26.1914,-97.0507,1009.12,11111222 
TABS,ioos:station:wmo:42044:1,2003-04-06T09:39:00Z,26.1914,-97.0507,1008.74,11111222 
TABS,ioos:station:wmo:42044:1,2003-04-06T10:09:00Z,26.1914,-97.0507,1008.68,11111222 
TABS,ioos:station:wmo:42044:1,2003-04-06T10:39:00Z,26.1914,-97.0507,1008.36,11111222 
TABS,ioos:station:wmo:42044:1,2003-04-06T11:09:00Z,26.1914,-97.0507,1008.74,11111222 
TABS,ioos:station:wmo:42044:1,2003-04-06T11:39:00Z,26.1914,-97.0507,1008.36,11111222 
TABS,ioos:station:wmo:42044:1,2003-04-06T12:09:00Z,26.1914,-97.0507,1008.49,11111222 
TABS,ioos:station:wmo:42044:1,2003-04-06T12:39:00Z,26.1914,-97.0507,1008.81,11111222 
TABS,ioos:station:wmo:42044:1,2003-04-06T13:09:00Z,26.1914,-97.0507,1008.81,11111222 
TABS,ioos:station:wmo:42044:1,2003-04-06T13:39:00Z,26.1914,-97.0507,1009.44,11111222 
TABS,ioos:station:wmo:42044:1,2003-04-06T14:09:00Z,26.1914,-97.0507,1009.95,11111222 
TABS,ioos:station:wmo:42044:1,2003-04-06T14:39:00Z,26.1914,-97.0507,1010.08,11111222 
TABS,ioos:station:wmo:42044:1,2003-04-06T15:09:00Z,26.1914,-97.0507,1010.01,11111222 
TABS,ioos:station:wmo:42044:1,2003-04-06T15:39:00Z,26.1914,-97.0507,1010.14,11111222 
TABS,ioos:station:wmo:42044:1,2003-04-06T16:09:00Z,26.1914,-97.0507,1010.52,11111222 
TABS,ioos:station:wmo:42044:1,2003-04-06T16:39:00Z,26.1914,-97.0507,1010.2,11111222 
TABS,ioos:station:wmo:42044:1,2003-04-06T17:09:00Z,26.1914,-97.0507,1010.33,11111222 
TABS,ioos:station:wmo:42044:1,2003-04-06T17:39:00Z,26.1914,-97.0507,1010.01,11111222 
TABS,ioos:station:wmo:42044:1,2003-04-06T18:09:00Z,26.1914,-97.0507,1009.5,11111222 
TABS,ioos:station:wmo:42044:1,2003-04-06T18:39:00Z,26.1914,-97.0507,1009.38,11111222 
TABS,ioos:station:wmo:42044:1,2003-04-06T19:09:00Z,26.1914,-97.0507,1009.0,11111222 
TABS,ioos:station:wmo:42044:1,2003-04-06T19:39:00Z,26.1914,-97.0507,1008.74,11111222 
TABS,ioos:station:wmo:42044:1,2003-04-06T20:09:00Z,26.1914,-97.0507,1008.49,11111222 
TABS,ioos:station:wmo:42044:1,2003-04-06T20:39:00Z,26.1914,-97.0507,1008.87,11111222 
TABS,ioos:station:wmo:42044:1,2003-04-06T21:09:00Z,26.1914,-97.0507,1008.81,11111222 
TABS,ioos:station:wmo:42044:1,2003-04-06T21:39:00Z,26.1914,-97.0507,1008.23,11111222 
TABS,ioos:station:wmo:42044:1,2003-04-06T22:09:00Z,26.1914,-97.0507,1008.42,11111222 
TABS,ioos:station:wmo:42044:1,2003-04-06T22:39:00Z,26.1914,-97.0507,1008.42,11111222 